CZ-4C DEB

Satellite information

Favourite Embed

Satellite Type and Status

DEBRISIN ORBIT

Key statistics

Satellite CZ-4C DEB at a glance.

Uptime

2706

Days in orbit

Revolutions

≈ 13.4

Per day

Orbit

LEO

Low Earth Orbit

Inclination

63.4

Latest

Satellite identification and parameters

Extended collection of information and parameters for CZ-4C DEB.

Object identification

Identified? True

Debris? True

Object name: CZ-4C DEB

International designator: 2018-034H

Object number (NORAD): 43338

Object ID (CCSDS): 43338

Country: PEOPLES REPUBLIC OF CHINA (PRC)

Current information (Y/N): Y

RCS size: SMALL

Orbital parameters

Period: 107.087 minutes

Inclination: 63.3949 deg

SMA: 7469.954 km

Apoapsis: 1278.12 km

Periapsis: 905.517 km

RAAN: 114.1173 deg

Eccentricy: 0.02494009

Argument of periapsis: 7.4773 deg

Mean anomaly: 352.9863 deg

Mean motion: 13.44701544 rev/day

Mean motion (dot): -0.00000027 rev/day2

B* drag term: 0.000089967261 1/REarth

Two-line elements (TLE)

Creation date: Sept. 5, 2025, 4:46 a.m.

Reference frame: TEME

Reference center: EARTH

Epoch: Sept. 4, 2025, 8:55 a.m. UTC

TLE line 0: 0 CZ-4C DEB

TLE line 1: 1 43338U 18034H 25247.37214523 -.00000027 00000-0 89967-4 0 9997

TLE line 2: 2 43338 63.3949 114.1173 0249401 7.4773 352.9863 13.44701544363420

Live tracking on map

Real-time ground track for satellite CZ-4C DEB.

In-orbit conjunctions

A list of the most updated potential collisions computed for object CZ-4C DEB.

Target Orbit TCA Probability of collision Miss distance Type
DELTA 1 DEB SSO 2025-02-24 03:19:34 0.0003257882 43.0 (m) DEBRIS

Associated space launch

CZ-4C DEB was lifted into orbit during the mission ‘Long March 4C | 3 x Yaogan-31-01’, on board a Long March 4C space rocket.

The launch took place on April 10, 2018, 4:25 a.m. from Launch Area 4 (SLS-2 / 603).

For more information about the launch, click the button.

Launch to space Long March 4C | 3 x Yaogan-31-01
Long March 4C | 3 x Yaogan-31-01

Agency: N/A

Status: Launch Successful

Launch date: April 10, 2018, 4:25 a.m. UTC

Rocket: Long March 4C

Launch pad: Launch Area 4 (SLS-2 / 603)

Location: Jiuquan Satellite Launch Center, People's Republic of China

...

Latest news about this satellite

There are no fresh news available about this satellite. Check back as we update our databases every day.


Newsletter sign-up

Weekly statistics, charts and insights to help you stay on top of the space industry.